Time,TemperatureF,DewpointF,PressureIn,WindDirection,WindDirectionDegrees,WindSpeedMPH,WindSpeedGustMPH,Humidity,HourlyPrecipIn,Conditions,Clouds,dailyrainin,SoftwareType,DateUTC
2013-01-16 00:00:00,31.3,18.6,28.97,West,272,6.9,8.7,59,0.00,,---,0.00,VWS V14.01,2013-01-16 05:00:00,
2013-01-16 00:56:00,22.1,15.4,29.03,ENE,77,0.0,0.0,75,0.00,,---,0.00,VWS V14.01,2013-01-16 05:56:00,
2013-01-16 00:57:00,30.7,20.7,29.00,WSW,252,5.8,7.4,66,0.00,,---,0.00,VWS V14.01,2013-01-16 05:57:00,
2013-01-16 00:58:00,30.7,20.7,29.00,SW,232,6.3,8.3,66,0.00,,---,0.00,VWS V14.01,2013-01-16 05:58:00,
2013-01-16 00:59:00,30.7,20.7,29.00,West,271,4.0,9.6,66,0.00,,---,0.00,VWS V14.01,2013-01-16 05:59:00,
2013-01-16 01:00:00,30.7,20.7,29.00,West,260,3.6,7.4,66,0.00,,---,0.00,VWS V14.01,2013-01-16 06:00:00,
2013-01-16 01:01:00,30.7,21.1,29.00,WSW,251,6.7,7.8,67,0.00,,---,0.00,VWS V14.01,2013-01-16 06:01:00,
2013-01-16 01:02:00,22.1,15.7,29.00,ENE,77,0.0,0.0,76,0.00,,---,0.00,VWS V14.01,2013-01-16 06:02:00,
2013-01-16 01:03:00,30.7,21.1,29.00,West,280,6.9,9.2,67,0.00,,---,0.00,VWS V14.01,2013-01-16 06:03:00,
2013-01-16 01:04:00,30.7,21.1,29.00,WSW,252,4.9,7.8,67,0.00,,---,0.00,VWS V14.01,2013-01-16 06:04:00,
2013-01-16 01:05:00,30.7,21.1,29.00,WSW,249,5.4,6.3,67,0.00,,---,0.00,VWS V14.01,2013-01-16 06:05:00,
2013-01-16 01:06:00,30.7,21.1,29.00,West,281,6.3,7.4,67,0.00,,---,0.00,VWS V14.01,2013-01-16 06:06:00,
2013-01-16 01:07:00,21.9,15.5,29.00,ENE,77,0.0,0.0,76,0.00,,---,0.00,VWS V14.01,2013-01-16 06:07:00,
2013-01-16 01:08:00,30.6,20.9,29.00,WSW,258,4.9,9.2,67,0.00,,---,0.00,VWS V14.01,2013-01-16 06:08:00,
2013-01-16 01:09:00,30.6,21.3,29.00,WSW,256,4.5,6.7,68,0.00,,---,0.00,VWS V14.01,2013-01-16 06:09:00,
2013-01-16 01:10:00,30.6,21.3,29.00,West,280,4.9,6.7,68,0.00,,---,0.00,VWS V14.01,2013-01-16 06:10:00,
2013-01-16 01:11:00,30.6,21.3,29.00,WNW,282,6.3,8.3,68,0.00,,---,0.00,VWS V14.01,2013-01-16 06:11:00,
2013-01-16 01:12:00,21.9,15.5,29.00,ENE,77,0.0,0.0,76,0.00,,---,0.00,VWS V14.01,2013-01-16 06:12:00,
2013-01-16 01:13:00,30.6,21.3,29.00,WSW,255,4.9,7.8,68,0.00,,---,0.00,VWS V14.01,2013-01-16 06:13:00,
2013-01-16 01:14:00,30.7,21.4,29.00,West,269,5.4,6.7,68,0.00,,---,0.00,VWS V14.01,2013-01-16 06:14:00,
2013-01-16 01:15:00,30.7,21.4,29.00,WSW,256,3.6,6.9,68,0.00,,---,0.00,VWS V14.01,2013-01-16 06:15:00,
2013-01-16 01:16:00,30.7,21.4,29.00,WSW,247,6.7,7.4,68,0.00,,---,0.00,VWS V14.01,2013-01-16 06:16:00,
2013-01-16 01:17:00,21.7,15.4,29.00,ENE,77,0.0,0.0,76,0.00,,---,0.00,VWS V14.01,2013-01-16 06:17:00,
2013-01-16 01:18:00,30.7,21.8,29.00,West,268,7.8,8.7,69,0.00,,---,0.00,VWS V14.01,2013-01-16 06:18:00,
2013-01-16 01:19:00,30.7,21.8,29.00,SW,229,6.3,9.2,69,0.00,,---,0.00,VWS V14.01,2013-01-16 06:19:00,
2013-01-16 01:20:00,30.9,21.6,29.00,West,263,5.8,9.2,68,0.00,,---,0.00,VWS V14.01,2013-01-16 06:20:00,
2013-01-16 01:21:00,30.9,21.6,29.00,SW,236,6.7,8.3,68,0.00,,---,0.00,VWS V14.01,2013-01-16 06:21:00,
2013-01-16 01:22:00,21.6,15.5,29.00,ENE,77,0.0,0.0,77,0.00,,---,0.00,VWS V14.01,2013-01-16 06:22:00,
2013-01-16 01:23:00,30.9,21.6,29.00,West,270,7.8,7.8,68,0.00,,---,0.00,VWS V14.01,2013-01-16 06:23:00,
2013-01-16 01:24:00,30.9,21.6,29.00,West,269,8.3,8.3,68,0.00,,---,0.00,VWS V14.01,2013-01-16 06:24:00,
2013-01-16 01:25:00,30.9,21.6,29.00,WSW,243,5.4,8.3,68,0.00,,---,0.00,VWS V14.01,2013-01-16 06:25:00,
2013-01-16 01:26:00,30.9,21.6,29.00,West,266,6.7,8.7,68,0.00,,---,0.00,VWS V14.01,2013-01-16 06:26:00,
2013-01-16 01:27:00,21.7,15.6,29.00,ENE,77,0.0,0.0,77,0.00,,---,0.00,VWS V14.01,2013-01-16 06:27:00,
2013-01-16 01:28:00,31.1,21.8,29.00,WSW,256,4.0,6.9,68,0.00,,---,0.00,VWS V14.01,2013-01-16 06:28:00,
2013-01-16 01:29:00,31.1,21.8,29.00,WSW,258,9.6,9.6,68,0.00,,---,0.00,VWS V14.01,2013-01-16 06:29:00,
2013-01-16 01:30:00,31.1,21.8,29.00,WSW,249,4.9,9.6,68,0.00,,---,0.00,VWS V14.01,2013-01-16 06:30:00,
2013-01-16 01:31:00,31.1,21.8,29.00,West,261,4.9,7.4,68,0.00,,---,0.00,VWS V14.01,2013-01-16 06:31:00,
2013-01-16 01:32:00,31.1,21.8,29.00,WSW,256,4.9,7.4,68,0.00,,---,0.00,VWS V14.01,2013-01-16 06:32:00,
2013-01-16 01:33:00,31.1,21.4,29.00,West,259,5.4,5.8,67,0.00,,---,0.00,VWS V14.01,2013-01-16 06:33:00,
2013-01-16 01:34:00,31.1,21.4,29.00,West,261,4.5,5.4,67,0.00,,---,0.00,VWS V14.01,2013-01-16 06:34:00,
2013-01-16 01:35:00,31.1,21.4,29.00,WSW,252,4.0,7.4,67,0.00,,---,0.00,VWS V14.01,2013-01-16 06:35:00,
2013-01-16 01:36:00,21.4,15.3,29.00,ENE,77,0.0,0.0,77,0.00,,---,0.00,VWS V14.01,2013-01-16 06:36:00,
2013-01-16 01:37:00,31.1,21.4,29.00,West,264,6.7,7.4,67,0.00,,---,0.00,VWS V14.01,2013-01-16 06:37:00,
2013-01-16 01:38:00,31.1,21.4,29.00,WSW,251,7.4,8.3,67,0.00,,---,0.00,VWS V14.01,2013-01-16 06:38:00,
2013-01-16 01:39:00,31.1,21.4,29.00,West,269,4.9,7.4,67,0.00,,---,0.00,VWS V14.01,2013-01-16 06:39:00,
2013-01-16 01:40:00,31.1,21.4,29.00,West,269,2.7,4.9,67,0.00,,---,0.00,VWS V14.01,2013-01-16 06:40:00,
2013-01-16 01:41:00,21.4,15.3,29.00,ENE,77,0.0,0.0,77,0.00,,---,0.00,VWS V14.01,2013-01-16 06:41:00,
2013-01-16 01:43:00,31.3,21.6,29.00,West,281,4.9,6.7,67,0.00,,---,0.00,VWS V14.01,2013-01-16 06:43:00,
2013-01-16 01:46:00,21.2,15.1,29.00,ENE,77,0.0,0.0,77,0.00,,---,0.00,VWS V14.01,2013-01-16 06:46:00,
2013-01-16 01:47:00,31.3,21.6,29.00,West,267,4.0,9.2,67,0.00,,---,0.00,VWS V14.01,2013-01-16 06:47:00,
2013-01-16 01:49:00,31.3,21.6,29.00,WSW,252,8.7,8.7,67,0.00,,---,0.00,VWS V14.01,2013-01-16 06:49:00,
2013-01-16 01:52:00,21.0,14.9,29.00,ENE,77,0.0,0.0,77,0.00,,---,0.00,VWS V14.01,2013-01-16 06:52:00,
2013-01-16 01:54:00,31.3,21.6,29.00,WSW,254,6.3,8.7,67,0.00,,---,0.00,VWS V14.01,2013-01-16 06:54:00,
2013-01-16 01:56:00,31.3,21.6,29.00,WSW,238,4.5,9.6,67,0.00,,---,0.00,VWS V14.01,2013-01-16 06:56:00,
2013-01-16 01:57:00,21.4,15.6,29.00,ENE,77,0.0,0.0,78,0.00,,---,0.00,VWS V14.01,2013-01-16 06:57:00,
2013-01-16 01:59:00,31.3,21.6,29.00,WSW,252,4.5,7.8,67,0.00,,---,0.00,VWS V14.01,2013-01-16 06:59:00,
2013-01-16 02:00:00,31.3,21.6,29.00,WSW,254,6.7,7.8,67,0.00,,---,0.00,VWS V14.01,2013-01-16 07:00:00,
2013-01-16 02:02:00,21.2,15.7,29.00,ENE,77,0.0,0.0,79,0.00,,---,0.00,VWS V14.01,2013-01-16 07:02:00,
2013-01-16 02:05:00,31.3,21.6,29.00,WNW,283,6.3,9.6,67,0.00,,---,0.00,VWS V14.01,2013-01-16 07:05:00,
2013-01-16 02:07:00,21.0,15.5,29.00,ENE,77,0.0,0.0,79,0.00,,---,0.00,VWS V14.01,2013-01-16 07:07:00,
2013-01-16 02:08:00,31.1,21.4,29.00,WSW,254,5.4,6.9,67,0.00,,---,0.00,VWS V14.01,2013-01-16 07:08:00,
2013-01-16 02:11:00,31.1,21.4,29.00,West,262,4.5,4.5,67,0.00,,---,0.00,VWS V14.01,2013-01-16 07:11:00,
2013-01-16 02:12:00,20.8,15.4,29.00,ENE,77,0.0,0.0,79,0.00,,---,0.00,VWS V14.01,2013-01-16 07:12:00,
2013-01-16 02:13:00,30.9,21.3,29.00,West,266,6.9,9.2,67,0.00,,---,0.00,VWS V14.01,2013-01-16 07:13:00,
2013-01-16 02:15:00,30.7,21.1,29.00,WSW,248,8.3,8.3,67,0.00,,---,0.00,VWS V14.01,2013-01-16 07:15:00,
2013-01-16 02:16:00,30.7,21.1,29.00,West,261,6.7,8.3,67,0.00,,---,0.00,VWS V14.01,2013-01-16 07:16:00,
2013-01-16 02:17:00,20.8,15.7,29.00,ENE,77,0.0,0.0,80,0.00,,---,0.00,VWS V14.01,2013-01-16 07:17:00,
2013-01-16 02:18:00,30.7,21.4,29.00,West,260,6.3,9.2,68,0.00,,---,0.00,VWS V14.01,2013-01-16 07:18:00,
2013-01-16 02:19:00,30.6,21.3,29.00,WNW,282,5.4,7.4,68,0.00,,---,0.00,VWS V14.01,2013-01-16 07:19:00,
2013-01-16 02:21:00,30.6,21.3,29.00,WSW,249,4.5,11.6,68,0.00,,---,0.00,VWS V14.01,2013-01-16 07:21:00,
2013-01-16 02:22:00,30.6,21.3,29.00,WSW,251,5.8,6.7,68,0.00,,---,0.00,VWS V14.01,2013-01-16 07:22:00,
2013-01-16 02:23:00,21.0,15.8,29.00,ENE,77,0.0,0.0,80,0.00,,---,0.00,VWS V14.01,2013-01-16 07:23:00,
2013-01-16 02:25:00,30.4,21.1,29.00,West,273,6.3,6.3,68,0.00,,---,0.00,VWS V14.01,2013-01-16 07:25:00,
2013-01-16 02:26:00,30.4,21.1,29.00,West,275,4.5,6.3,68,0.00,,---,0.00,VWS V14.01,2013-01-16 07:26:00,
2013-01-16 02:28:00,21.4,16.5,29.00,ENE,77,0.0,0.0,81,0.00,,---,0.00,VWS V14.01,2013-01-16 07:28:00,
2013-01-16 02:30:00,30.4,21.1,29.00,WSW,252,5.8,6.3,68,0.00,,---,0.00,VWS V14.01,2013-01-16 07:30:00,
2013-01-16 02:32:00,30.2,21.3,29.00,West,267,3.6,10.1,69,0.00,,---,0.00,VWS V14.01,2013-01-16 07:32:00,
2013-01-16 02:33:00,21.7,17.1,29.00,ENE,77,0.0,0.0,82,0.00,,---,0.00,VWS V14.01,2013-01-16 07:33:00,
2013-01-16 02:34:00,30.2,21.3,29.00,WSW,243,6.9,6.9,69,0.00,,---,0.00,VWS V14.01,2013-01-16 07:34:00,
2013-01-16 02:38:00,21.7,17.4,29.00,ENE,77,0.0,0.0,83,0.00,,---,0.00,VWS V14.01,2013-01-16 07:38:00,
2013-01-16 02:42:00,30.2,21.6,29.00,West,270,3.6,8.3,70,0.00,,---,0.00,VWS V14.01,2013-01-16 07:42:00,
2013-01-16 02:43:00,21.7,17.4,29.00,ENE,77,0.0,0.0,83,0.00,,---,0.00,VWS V14.01,2013-01-16 07:43:00,
2013-01-16 02:44:00,30.0,21.4,29.00,West,268,4.5,5.4,70,0.00,,---,0.00,VWS V14.01,2013-01-16 07:44:00,
2013-01-16 02:46:00,30.0,21.4,29.00,West,266,4.5,6.7,70,0.00,,---,0.00,VWS V14.01,2013-01-16 07:46:00,
2013-01-16 02:48:00,21.7,17.7,29.00,ENE,77,0.0,0.0,84,0.00,,---,0.00,VWS V14.01,2013-01-16 07:48:00,
2013-01-16 02:50:00,29.8,21.6,29.00,WNW,282,5.4,7.8,71,0.00,,---,0.00,VWS V14.01,2013-01-16 07:50:00,
2013-01-16 02:52:00,29.8,21.6,29.03,WNW,288,3.1,6.9,71,0.00,,---,0.00,VWS V14.01,2013-01-16 07:52:00,
2013-01-16 02:53:00,21.7,17.7,29.00,ENE,77,0.0,0.0,84,0.00,,---,0.00,VWS V14.01,2013-01-16 07:53:00,
2013-01-16 02:57:00,29.7,21.8,29.03,WSW,250,5.8,6.9,72,0.00,,---,0.00,VWS V14.01,2013-01-16 07:57:00,
2013-01-16 02:58:00,21.7,17.9,28.97,ENE,77,0.0,0.0,85,0.00,,---,0.00,VWS V14.01,2013-01-16 07:58:00,
2013-01-16 03:00:00,29.7,21.8,29.03,West,261,7.8,7.8,72,0.00,,---,0.00,VWS V14.01,2013-01-16 08:00:00,
2013-01-16 03:01:00,29.7,21.8,29.03,West,277,6.7,7.8,72,0.00,,---,0.00,VWS V14.01,2013-01-16 08:01:00,
2013-01-16 03:06:00,21.9,18.1,28.97,ENE,77,0.0,0.0,85,0.00,,---,0.00,VWS V14.01,2013-01-16 08:06:00,
2013-01-16 03:11:00,21.9,18.1,28.97,ENE,77,0.0,0.0,85,0.00,,---,0.00,VWS V14.01,2013-01-16 08:11:00,
2013-01-16 03:16:00,22.1,18.3,28.97,ENE,77,0.0,0.0,85,0.00,,---,0.00,VWS V14.01,2013-01-16 08:16:00,
2013-01-16 03:21:00,22.1,18.3,28.97,ENE,77,0.0,0.0,85,0.00,,---,0.00,VWS V14.01,2013-01-16 08:21:00,
2013-01-16 03:26:00,22.5,18.9,28.97,ENE,77,0.0,0.0,86,0.00,,---,0.00,VWS V14.01,2013-01-16 08:26:00,
2013-01-16 03:32:00,22.8,19.5,29.00,ENE,77,0.0,0.0,87,0.00,,---,0.00,VWS V14.01,2013-01-16 08:32:00,
2013-01-16 03:39:00,23.0,20.0,29.00,ENE,77,0.0,0.0,88,0.00,,---,0.00,VWS V14.01,2013-01-16 08:39:00,
2013-01-16 03:45:00,23.0,20.0,29.00,ENE,77,0.0,0.0,88,0.00,,---,0.00,VWS V14.01,2013-01-16 08:45:00,
2013-01-16 03:50:00,23.0,20.2,29.00,ENE,77,0.0,0.0,89,0.00,,---,0.00,VWS V14.01,2013-01-16 08:50:00,
2013-01-16 03:55:00,23.0,20.2,29.00,ENE,77,0.0,0.0,89,0.00,,---,0.00,VWS V14.01,2013-01-16 08:55:00,
2013-01-16 04:00:00,23.0,20.2,28.97,ENE,77,0.0,0.0,89,0.00,,---,0.00,VWS V14.01,2013-01-16 09:00:00,
2013-01-16 04:06:00,23.2,20.4,28.97,ENE,77,0.0,0.0,89,0.00,,---,0.00,VWS V14.01,2013-01-16 09:06:00,
2013-01-16 04:11:00,23.4,20.9,28.97,ENE,77,0.0,0.0,90,0.00,,---,0.00,VWS V14.01,2013-01-16 09:11:00,
2013-01-16 04:16:00,23.5,21.0,28.97,ENE,77,0.0,0.0,90,0.00,,---,0.00,VWS V14.01,2013-01-16 09:16:00,
2013-01-16 04:21:00,23.7,21.2,28.97,ENE,77,0.0,0.0,90,0.00,,---,0.00,VWS V14.01,2013-01-16 09:21:00,
2013-01-16 04:26:00,23.9,21.4,28.97,ENE,77,0.0,0.0,90,0.00,,---,0.00,VWS V14.01,2013-01-16 09:26:00,
2013-01-16 04:31:00,23.9,21.4,28.97,ENE,77,0.0,0.0,90,0.00,,---,0.00,VWS V14.01,2013-01-16 09:31:00,
2013-01-16 04:36:00,23.9,21.4,28.97,ENE,77,0.0,0.0,90,0.00,,---,0.00,VWS V14.01,2013-01-16 09:36:00,
2013-01-16 04:42:00,23.9,21.7,28.97,ENE,77,0.0,0.0,91,0.00,,---,0.00,VWS V14.01,2013-01-16 09:42:00,
2013-01-16 04:47:00,23.9,21.7,28.97,ENE,77,0.0,0.0,91,0.00,,---,0.00,VWS V14.01,2013-01-16 09:47:00,
2013-01-16 04:52:00,23.9,21.7,28.97,ENE,77,0.0,0.0,91,0.00,,---,0.00,VWS V14.01,2013-01-16 09:52:00,
2013-01-16 04:57:00,23.7,21.5,28.97,ENE,77,0.0,0.0,91,0.00,,---,0.00,VWS V14.01,2013-01-16 09:57:00,
2013-01-16 05:00:00,29.3,23.6,29.03,West,267,0.0,3.1,79,0.00,,---,0.00,VWS V14.01,2013-01-16 10:00:00,
2013-01-16 05:03:00,23.5,21.3,28.97,ENE,77,0.0,0.0,91,0.00,,---,0.00,VWS V14.01,2013-01-16 10:03:00,
2013-01-16 05:08:00,23.4,21.1,28.97,ENE,77,0.0,0.0,91,0.00,,---,0.00,VWS V14.01,2013-01-16 10:08:00,
2013-01-16 05:13:00,23.4,21.1,28.94,ENE,77,0.0,0.0,91,0.00,,---,0.00,VWS V14.01,2013-01-16 10:13:00,
2013-01-16 05:18:00,23.4,21.1,28.94,ENE,77,0.0,0.0,91,0.00,,---,0.00,VWS V14.01,2013-01-16 10:18:00,
2013-01-16 05:23:00,23.2,21.0,28.94,ENE,77,0.0,0.0,91,0.00,,---,0.00,VWS V14.01,2013-01-16 10:23:00,
2013-01-16 05:28:00,23.0,20.8,28.94,ENE,77,0.0,0.0,91,0.00,,---,0.00,VWS V14.01,2013-01-16 10:28:00,
2013-01-16 05:33:00,23.0,20.8,28.94,ENE,77,0.0,0.0,91,0.00,,---,0.00,VWS V14.01,2013-01-16 10:33:00,
2013-01-16 05:38:00,23.0,20.8,28.94,ENE,77,0.0,0.0,91,0.00,,---,0.00,VWS V14.01,2013-01-16 10:38:00,
2013-01-16 05:43:00,23.0,20.8,28.94,ENE,77,0.0,0.0,91,0.00,,---,0.00,VWS V14.01,2013-01-16 10:43:00,
2013-01-16 05:48:00,23.0,20.8,28.94,ENE,77,0.0,0.0,91,0.00,,---,0.00,VWS V14.01,2013-01-16 10:48:00,
2013-01-16 05:53:00,23.0,20.8,28.94,ENE,77,0.0,0.0,91,0.00,,---,0.00,VWS V14.01,2013-01-16 10:53:00,
2013-01-16 05:58:00,23.4,21.1,28.94,ENE,77,0.0,0.0,91,0.00,,---,0.00,VWS V14.01,2013-01-16 10:58:00,
2013-01-16 06:00:00,28.0,22.7,29.06,West,263,0.0,0.0,80,0.00,,---,0.00,VWS V14.01,2013-01-16 11:00:00,
2013-01-16 06:03:00,23.5,21.3,28.94,ENE,77,0.0,0.0,91,0.00,,---,0.00,VWS V14.01,2013-01-16 11:03:00,
2013-01-16 06:08:00,23.5,21.3,28.94,ENE,77,0.0,0.0,91,0.00,,---,0.00,VWS V14.01,2013-01-16 11:08:00,
2013-01-16 06:13:00,23.7,21.5,28.94,ENE,77,0.0,0.0,91,0.00,,---,0.00,VWS V14.01,2013-01-16 11:13:00,
2013-01-16 06:18:00,23.9,21.7,28.94,ENE,77,0.0,0.0,91,0.00,,---,0.00,VWS V14.01,2013-01-16 11:18:00,
2013-01-16 06:23:00,24.1,21.8,28.94,ENE,77,0.0,0.0,91,0.00,,---,0.00,VWS V14.01,2013-01-16 11:23:00,
2013-01-16 06:28:00,24.1,21.8,28.94,ENE,77,0.0,0.0,91,0.00,,---,0.00,VWS V14.01,2013-01-16 11:28:00,
2013-01-16 06:33:00,24.3,22.0,28.94,ENE,77,0.0,0.0,91,0.00,,---,0.00,VWS V14.01,2013-01-16 11:33:00,
2013-01-16 06:38:00,24.3,22.0,28.94,ENE,77,0.0,0.0,91,0.00,,---,0.00,VWS V14.01,2013-01-16 11:38:00,
2013-01-16 06:43:00,24.3,22.0,28.94,ENE,77,0.0,0.0,91,0.00,,---,0.00,VWS V14.01,2013-01-16 11:43:00,
2013-01-16 06:48:00,24.3,22.0,28.94,ENE,77,0.0,0.0,91,0.00,,---,0.00,VWS V14.01,2013-01-16 11:48:00,
2013-01-16 06:53:00,24.1,21.8,28.94,ENE,77,0.0,0.0,91,0.00,,---,0.00,VWS V14.01,2013-01-16 11:53:00,
2013-01-16 06:58:00,24.1,21.8,28.94,ENE,77,0.0,0.0,91,0.00,,---,0.00,VWS V14.01,2013-01-16 11:58:00,
2013-01-16 07:03:00,24.3,22.0,28.94,ENE,77,0.0,0.0,91,0.00,,---,0.00,VWS V14.01,2013-01-16 12:03:00,
2013-01-16 07:08:00,24.3,22.0,28.94,ENE,77,0.0,0.0,91,0.00,,---,0.00,VWS V14.01,2013-01-16 12:08:00,
2013-01-16 07:13:00,24.1,21.8,28.94,ENE,77,0.0,0.0,91,0.00,,---,0.00,VWS V14.01,2013-01-16 12:13:00,
2013-01-16 07:18:00,24.1,21.8,28.94,ENE,77,0.0,0.0,91,0.00,,---,0.00,VWS V14.01,2013-01-16 12:18:00,
2013-01-16 07:23:00,24.1,21.8,28.94,ENE,77,0.0,0.0,91,0.00,,---,0.00,VWS V14.01,2013-01-16 12:23:00,
2013-01-16 07:28:00,24.3,22.0,28.94,ENE,77,0.0,0.0,91,0.00,,---,0.00,VWS V14.01,2013-01-16 12:28:00,
2013-01-16 07:33:00,24.3,22.3,28.94,ENE,77,0.0,0.0,92,0.00,,---,0.00,VWS V14.01,2013-01-16 12:33:00,
2013-01-16 07:38:00,24.3,22.3,28.94,ENE,77,0.0,0.0,92,0.00,,---,0.00,VWS V14.01,2013-01-16 12:38:00,
2013-01-16 07:43:00,24.1,22.1,28.94,ENE,77,0.0,0.0,92,0.00,,---,0.00,VWS V14.01,2013-01-16 12:43:00,
2013-01-16 07:44:00,28.4,24.2,29.06,West,263,0.0,0.0,84,0.00,,---,0.00,VWS V14.01,2013-01-16 12:44:00,
2013-01-16 07:48:00,24.1,22.1,28.94,ENE,77,0.0,0.0,92,0.00,,---,0.00,VWS V14.01,2013-01-16 12:48:00,
2013-01-16 07:53:00,23.9,21.9,28.94,ENE,77,0.0,0.0,92,0.00,,---,0.00,VWS V14.01,2013-01-16 12:53:00,
2013-01-16 07:56:00,28.8,24.8,29.09,West,263,0.0,0.0,85,0.00,,---,0.00,VWS V14.01,2013-01-16 12:56:00,
2013-01-16 07:58:00,23.7,21.7,28.94,ENE,77,0.0,0.0,92,0.00,,---,0.00,VWS V14.01,2013-01-16 12:58:00,
2013-01-16 08:03:00,23.5,21.6,28.94,ENE,77,0.0,0.0,92,0.00,,---,0.00,VWS V14.01,2013-01-16 13:03:00,
2013-01-16 08:04:00,28.8,24.8,29.09,West,263,0.0,0.0,85,0.00,,---,0.00,VWS V14.01,2013-01-16 13:04:00,
2013-01-16 08:07:00,28.8,25.1,29.09,West,263,0.0,0.0,86,0.00,,---,0.00,VWS V14.01,2013-01-16 13:07:00,
2013-01-16 08:08:00,23.5,21.6,28.94,ENE,77,0.0,0.0,92,0.00,,---,0.00,VWS V14.01,2013-01-16 13:08:00,
2013-01-16 08:10:00,28.8,25.1,29.09,West,263,0.0,0.0,86,0.00,,---,0.00,VWS V14.01,2013-01-16 13:10:00,
2013-01-16 08:11:00,28.8,25.1,29.09,West,263,0.0,0.0,86,0.00,,---,0.00,VWS V14.01,2013-01-16 13:11:00,
2013-01-16 08:13:00,23.4,21.4,28.94,ENE,77,0.0,0.0,92,0.00,,---,0.00,VWS V14.01,2013-01-16 13:13:00,
2013-01-16 08:14:00,28.8,25.1,29.09,West,263,0.0,0.0,86,0.00,,---,0.00,VWS V14.01,2013-01-16 13:14:00,
2013-01-16 08:17:00,28.8,25.1,29.09,West,263,0.0,0.0,86,0.00,,---,0.00,VWS V14.01,2013-01-16 13:17:00,
2013-01-16 08:18:00,23.4,21.4,28.94,ENE,77,0.0,0.0,92,0.00,,---,0.00,VWS V14.01,2013-01-16 13:18:00,
2013-01-16 08:19:00,28.8,25.1,29.09,West,263,0.0,0.0,86,0.00,,---,0.00,VWS V14.01,2013-01-16 13:19:00,
2013-01-16 08:20:00,28.6,24.9,29.09,West,263,0.0,0.0,86,0.00,,---,0.00,VWS V14.01,2013-01-16 13:20:00,
2013-01-16 08:21:00,28.6,24.9,29.09,West,263,0.0,0.0,86,0.00,,---,0.00,VWS V14.01,2013-01-16 13:21:00,
2013-01-16 08:23:00,23.5,21.8,28.94,ENE,77,0.0,0.0,93,0.00,,---,0.00,VWS V14.01,2013-01-16 13:23:00,
2013-01-16 08:24:00,28.6,24.9,29.09,West,263,0.0,0.0,86,0.00,,---,0.00,VWS V14.01,2013-01-16 13:24:00,
2013-01-16 08:25:00,28.6,24.9,29.09,West,263,0.0,0.0,86,0.00,,---,0.00,VWS V14.01,2013-01-16 13:25:00,
2013-01-16 08:28:00,23.7,22.0,28.94,ENE,77,0.0,0.0,93,0.00,,---,0.00,VWS V14.01,2013-01-16 13:28:00,
2013-01-16 08:31:00,28.4,24.8,29.09,West,263,0.0,0.0,86,0.00,,---,0.00,VWS V14.01,2013-01-16 13:31:00,
2013-01-16 08:32:00,28.4,24.8,29.09,West,263,0.0,0.0,86,0.00,,---,0.00,VWS V14.01,2013-01-16 13:32:00,
2013-01-16 08:33:00,23.9,22.2,28.94,ENE,77,0.0,0.0,93,0.00,,---,0.00,VWS V14.01,2013-01-16 13:33:00,
2013-01-16 08:34:00,28.2,24.9,29.09,West,263,0.0,0.0,87,0.00,,---,0.00,VWS V14.01,2013-01-16 13:34:00,
2013-01-16 08:38:00,24.1,22.4,28.94,ENE,77,0.0,0.0,93,0.00,,---,0.00,VWS V14.01,2013-01-16 13:38:00,
2013-01-16 08:43:00,24.1,22.4,28.94,ENE,77,0.0,0.0,93,0.00,,---,0.00,VWS V14.01,2013-01-16 13:43:00,
2013-01-16 08:48:00,23.9,22.2,28.94,ENE,77,0.0,0.0,93,0.00,,---,0.00,VWS V14.01,2013-01-16 13:48:00,
2013-01-16 08:53:00,23.9,22.4,28.94,ENE,77,0.0,0.0,94,0.00,,---,0.00,VWS V14.01,2013-01-16 13:53:00,
2013-01-16 08:58:00,23.9,22.4,28.94,ENE,77,0.0,0.0,94,0.00,,---,0.00,VWS V14.01,2013-01-16 13:58:00,
2013-01-16 09:03:00,23.9,22.4,28.94,ENE,77,0.0,0.0,94,0.00,,---,0.00,VWS V14.01,2013-01-16 14:03:00,
2013-01-16 09:08:00,24.1,22.6,28.94,West,261,0.0,0.0,94,0.00,,---,0.00,VWS V14.01,2013-01-16 14:08:00,
2013-01-16 09:13:00,24.3,22.8,28.94,West,271,0.0,0.0,94,0.00,,---,0.00,VWS V14.01,2013-01-16 14:13:00,
2013-01-16 09:18:00,24.4,23.0,28.94,WNW,284,0.0,0.0,94,0.00,,---,0.00,VWS V14.01,2013-01-16 14:18:00,
2013-01-16 09:23:00,24.3,23.0,28.94,WSW,253,0.0,0.0,95,0.00,,---,0.00,VWS V14.01,2013-01-16 14:23:00,
2013-01-16 09:28:00,24.3,23.0,28.97,WSW,258,0.0,0.0,95,0.00,,---,0.00,VWS V14.01,2013-01-16 14:28:00,
2013-01-16 09:33:00,24.4,23.2,28.97,WSW,256,0.0,0.0,95,0.00,,---,0.00,VWS V14.01,2013-01-16 14:33:00,
2013-01-16 09:38:00,24.6,23.4,28.97,SW,236,0.0,0.0,95,0.00,,---,0.00,VWS V14.01,2013-01-16 14:38:00,
2013-01-16 09:43:00,24.8,23.6,28.97,WSW,250,0.0,0.0,95,0.00,,---,0.00,VWS V14.01,2013-01-16 14:43:00,
2013-01-16 09:48:00,25.2,23.9,28.97,West,270,0.0,0.0,95,0.00,,---,0.00,VWS V14.01,2013-01-16 14:48:00,
2013-01-16 09:53:00,25.5,24.3,28.97,WSW,244,0.0,0.0,95,0.00,,---,0.00,VWS V14.01,2013-01-16 14:53:00,
2013-01-16 09:58:00,26.1,24.6,28.97,West,273,0.0,0.0,94,0.00,,---,0.00,VWS V14.01,2013-01-16 14:58:00,
2013-01-16 10:03:00,26.2,24.5,28.97,West,261,0.0,0.0,93,0.00,,---,0.00,VWS V14.01,2013-01-16 15:03:00,
2013-01-16 10:08:00,26.8,24.8,28.97,West,269,0.0,0.0,92,0.00,,---,0.00,VWS V14.01,2013-01-16 15:08:00,
2013-01-16 10:13:00,27.1,24.6,28.94,West,277,0.0,0.0,90,0.00,,---,0.00,VWS V14.01,2013-01-16 15:13:00,
2013-01-16 10:18:00,27.5,24.1,28.94,WNW,282,0.0,0.0,87,0.00,,---,0.00,VWS V14.01,2013-01-16 15:18:00,
2013-01-16 10:23:00,27.7,22.9,28.94,West,272,0.0,0.0,82,0.00,,---,0.00,VWS V14.01,2013-01-16 15:23:00,
2013-01-16 10:28:00,27.9,22.2,28.94,West,271,0.0,0.0,79,0.00,,---,0.00,VWS V14.01,2013-01-16 15:28:00,
2013-01-16 10:30:00,28.4,25.9,29.15,West,263,0.0,0.0,90,0.00,,---,0.00,VWS V14.01,2013-01-16 15:30:00,
2013-01-16 10:31:00,28.6,26.0,29.15,West,263,0.0,0.0,90,0.00,,---,0.00,VWS V14.01,2013-01-16 15:31:00,
2013-01-16 10:33:00,28.2,21.6,28.94,WSW,237,0.0,0.0,76,0.00,,---,0.00,VWS V14.01,2013-01-16 15:33:00,
2013-01-16 10:38:00,28.6,21.0,28.94,NW,308,0.0,0.0,73,0.00,,---,0.00,VWS V14.01,2013-01-16 15:38:00,
2013-01-16 10:43:00,28.6,20.0,28.94,West,266,0.0,0.0,70,0.00,,---,0.00,VWS V14.01,2013-01-16 15:43:00,
2013-01-16 10:48:00,29.1,20.2,28.94,WSW,239,2.7,10.5,69,0.00,,---,0.00,VWS V14.01,2013-01-16 15:48:00,
2013-01-16 10:53:00,28.9,19.4,28.94,WSW,252,0.0,0.0,67,0.00,,---,0.00,VWS V14.01,2013-01-16 15:53:00,
2013-01-16 10:58:00,29.1,18.8,28.97,West,274,0.0,0.0,65,0.00,,---,0.00,VWS V14.01,2013-01-16 15:58:00,
2013-01-16 11:03:00,29.5,18.8,28.97,WNW,284,0.0,0.0,64,0.00,,---,0.00,VWS V14.01,2013-01-16 16:03:00,
2013-01-16 11:08:00,29.7,17.9,28.97,WSW,252,0.0,0.0,61,0.00,,---,0.00,VWS V14.01,2013-01-16 16:08:00,
2013-01-16 11:13:00,30.0,17.8,28.94,SW,216,0.0,0.0,60,0.00,,---,0.00,VWS V14.01,2013-01-16 16:13:00,
2013-01-16 11:18:00,30.0,17.4,28.94,West,268,0.0,0.0,59,0.00,,---,0.00,VWS V14.01,2013-01-16 16:18:00,
2013-01-16 11:23:00,30.0,17.0,28.94,NW,323,0.0,0.0,58,0.00,,---,0.00,VWS V14.01,2013-01-16 16:23:00,
2013-01-16 11:28:00,30.6,17.1,28.94,West,261,0.0,0.0,57,0.00,,---,0.00,VWS V14.01,2013-01-16 16:28:00,
2013-01-16 11:33:00,30.7,16.5,28.94,WSW,239,0.0,0.0,55,0.00,,---,0.00,VWS V14.01,2013-01-16 16:33:00,
2013-01-16 11:38:00,30.9,15.4,28.94,NW,308,0.0,0.0,52,0.00,,---,0.00,VWS V14.01,2013-01-16 16:38:00,
2013-01-16 11:43:00,30.6,14.6,28.94,WNW,293,0.0,0.0,51,0.00,,---,0.00,VWS V14.01,2013-01-16 16:43:00,
2013-01-16 11:48:00,30.6,14.6,28.94,West,266,0.0,0.0,51,0.00,,---,0.00,VWS V14.01,2013-01-16 16:48:00,
2013-01-16 11:53:00,30.7,14.8,28.94,NW,309,0.0,0.0,51,0.00,,---,0.00,VWS V14.01,2013-01-16 16:53:00,
2013-01-16 11:58:00,31.3,14.8,28.94,West,273,4.5,11.2,50,0.00,,---,0.00,VWS V14.01,2013-01-16 16:58:00,
2013-01-16 12:03:00,31.8,15.8,28.94,West,268,9.2,11.0,51,0.00,,---,0.00,VWS V14.01,2013-01-16 17:03:00,
2013-01-16 12:08:00,32.0,15.5,28.94,WSW,257,7.8,13.0,50,0.00,,---,0.00,VWS V14.01,2013-01-16 17:08:00,
2013-01-16 12:13:00,32.2,14.2,28.91,West,277,9.2,11.0,47,0.00,,---,0.00,VWS V14.01,2013-01-16 17:13:00,
2013-01-16 12:18:00,32.7,14.2,28.91,WNW,294,8.7,9.2,46,0.00,,---,0.00,VWS V14.01,2013-01-16 17:18:00,
2013-01-16 12:23:00,32.5,12.5,28.91,WSW,246,4.9,9.2,43,0.00,,---,0.00,VWS V14.01,2013-01-16 17:23:00,
2013-01-16 12:28:00,32.7,12.2,28.91,WSW,245,6.9,11.0,42,0.00,,---,0.00,VWS V14.01,2013-01-16 17:28:00,
2013-01-16 12:33:00,32.9,11.8,28.91,West,270,6.3,12.1,41,0.00,,---,0.00,VWS V14.01,2013-01-16 17:33:00,
2013-01-16 12:38:00,33.1,11.4,28.91,WNW,295,9.6,13.4,40,0.00,,---,0.00,VWS V14.01,2013-01-16 17:38:00,
2013-01-16 12:43:00,33.4,12.8,28.91,WSW,256,6.3,7.8,42,0.00,,---,0.00,VWS V14.01,2013-01-16 17:43:00,
2013-01-16 12:48:00,34.0,13.9,28.91,West,263,8.3,9.2,43,0.00,,---,0.00,VWS V14.01,2013-01-16 17:48:00,
2013-01-16 12:53:00,34.0,13.3,28.91,WSW,255,9.6,11.0,42,0.00,,---,0.00,VWS V14.01,2013-01-16 17:53:00,
2013-01-16 12:58:00,34.0,13.3,28.91,SW,224,4.0,7.8,42,0.00,,---,0.00,VWS V14.01,2013-01-16 17:58:00,
2013-01-16 13:03:00,34.0,13.3,28.91,SW,225,4.5,9.6,42,0.00,,---,0.00,VWS V14.01,2013-01-16 18:03:00,
2013-01-16 13:08:00,34.2,13.5,28.91,WSW,243,9.2,11.6,42,0.00,,---,0.00,VWS V14.01,2013-01-16 18:08:00,
2013-01-16 13:13:00,33.8,13.1,28.91,SW,233,7.4,13.4,42,0.00,,---,0.00,VWS V14.01,2013-01-16 18:13:00,
2013-01-16 13:18:00,34.3,14.2,28.91,West,270,6.7,9.6,43,0.00,,---,0.00,VWS V14.01,2013-01-16 18:18:00,
2013-01-16 13:23:00,34.7,14.5,28.91,WSW,257,6.3,9.6,43,0.00,,---,0.00,VWS V14.01,2013-01-16 18:23:00,
2013-01-16 13:28:00,34.3,13.6,28.88,WSW,250,6.9,9.6,42,0.00,,---,0.00,VWS V14.01,2013-01-16 18:28:00,
2013-01-16 13:33:00,34.0,12.8,28.88,West,262,7.8,11.6,41,0.00,,---,0.00,VWS V14.01,2013-01-16 18:33:00,
2013-01-16 13:38:00,34.0,13.3,28.88,WSW,254,8.3,9.2,42,0.00,,---,0.00,VWS V14.01,2013-01-16 18:38:00,
2013-01-16 13:43:00,34.2,12.9,28.88,WSW,238,9.6,10.5,41,0.00,,---,0.00,VWS V14.01,2013-01-16 18:43:00,
2013-01-16 13:49:00,33.8,12.6,28.88,SW,236,8.7,11.2,41,0.00,,---,0.00,VWS V14.01,2013-01-16 18:49:00,
2013-01-16 13:54:00,34.0,12.8,28.88,West,268,8.3,11.2,41,0.00,,---,0.00,VWS V14.01,2013-01-16 18:54:00,
2013-01-16 13:59:00,34.0,12.8,28.88,WSW,247,6.3,9.2,41,0.00,,---,0.00,VWS V14.01,2013-01-16 18:59:00,
2013-01-16 14:04:00,33.4,11.7,28.88,WSW,258,9.2,11.0,40,0.00,,---,0.00,VWS V14.01,2013-01-16 19:04:00,
2013-01-16 14:10:00,33.6,12.4,28.88,WSW,248,7.8,11.0,41,0.00,,---,0.00,VWS V14.01,2013-01-16 19:10:00,
2013-01-16 14:16:00,34.2,13.5,28.88,WNW,289,7.4,9.6,42,0.00,,---,0.00,VWS V14.01,2013-01-16 19:16:00,
2013-01-16 14:19:00,38.7,17.6,29.12,NNW,333,6.3,8.3,42,0.00,,---,0.00,VWS V14.01,2013-01-16 19:19:00,
2013-01-16 14:21:00,34.2,12.9,28.88,West,272,12.5,12.5,41,0.00,,---,0.00,VWS V14.01,2013-01-16 19:21:00,
2013-01-16 14:22:00,39.0,17.9,29.12,NW,310,6.9,6.9,42,0.00,,---,0.00,VWS V14.01,2013-01-16 19:22:00,
2013-01-16 14:26:00,34.7,12.9,28.88,WSW,247,9.6,11.2,40,0.00,,---,0.00,VWS V14.01,2013-01-16 19:26:00,
2013-01-16 14:28:00,38.8,17.2,29.12,NW,323,7.4,7.4,41,0.00,,---,0.00,VWS V14.01,2013-01-16 19:28:00,
2013-01-16 14:29:00,38.7,16.4,29.12,NNW,340,8.3,11.0,40,0.00,,---,0.00,VWS V14.01,2013-01-16 19:29:00,
2013-01-16 14:31:00,34.9,13.0,28.88,WNW,282,9.2,12.1,40,0.00,,---,0.00,VWS V14.01,2013-01-16 19:31:00,
2013-01-16 14:32:00,38.7,16.4,29.12,NW,323,5.8,9.2,40,0.00,,---,0.00,VWS V14.01,2013-01-16 19:32:00,
2013-01-16 14:34:00,39.0,17.3,29.12,NW,322,5.4,6.9,41,0.00,,---,0.00,VWS V14.01,2013-01-16 19:34:00,
2013-01-16 14:35:00,39.2,18.0,29.12,NW,316,6.9,6.9,42,0.00,,---,0.00,VWS V14.01,2013-01-16 19:35:00,
2013-01-16 14:36:00,39.4,17.7,29.12,NNW,338,6.9,8.3,41,0.00,,---,0.00,VWS V14.01,2013-01-16 19:36:00,
2013-01-16 14:37:00,34.5,10.9,28.88,West,259,5.4,11.6,37,0.00,,---,0.00,VWS V14.01,2013-01-16 19:37:00,
2013-01-16 14:40:00,39.2,16.3,29.12,NW,321,8.3,10.1,39,0.00,,---,0.00,VWS V14.01,2013-01-16 19:40:00,
2013-01-16 14:42:00,34.5,12.7,28.88,SW,231,3.6,11.6,40,0.00,,---,0.00,VWS V14.01,2013-01-16 19:42:00,
2013-01-16 14:45:00,39.4,15.9,29.12,NNW,328,5.4,7.8,38,0.00,,---,0.00,VWS V14.01,2013-01-16 19:45:00,
2013-01-16 14:46:00,39.4,15.9,29.12,NNW,344,2.7,8.7,38,0.00,,---,0.00,VWS V14.01,2013-01-16 19:46:00,
2013-01-16 14:47:00,34.7,12.9,28.88,West,259,8.3,8.3,40,0.00,,---,0.00,VWS V14.01,2013-01-16 19:47:00,
2013-01-16 14:49:00,39.4,14.0,29.12,NNW,334,5.4,11.2,35,0.00,,---,0.00,VWS V14.01,2013-01-16 19:49:00,
2013-01-16 14:51:00,39.2,13.2,29.12,WNW,300,7.4,10.1,34,0.00,,---,0.00,VWS V14.01,2013-01-16 19:51:00,
2013-01-16 14:52:00,34.7,12.3,28.88,WSW,257,11.2,11.2,39,0.00,,---,0.00,VWS V14.01,2013-01-16 19:52:00,
2013-01-16 14:53:00,39.2,13.2,29.12,NW,324,7.8,8.3,34,0.00,,---,0.00,VWS V14.01,2013-01-16 19:53:00,
2013-01-16 14:54:00,39.2,12.5,29.12,NNW,327,11.2,12.1,33,0.00,,---,0.00,VWS V14.01,2013-01-16 19:54:00,
2013-01-16 14:57:00,34.7,11.1,28.88,WSW,243,8.3,9.6,37,0.00,,---,0.00,VWS V14.01,2013-01-16 19:57:00,
2013-01-16 15:03:00,35.4,12.9,28.88,WSW,253,5.8,8.3,39,0.00,,---,0.00,VWS V14.01,2013-01-16 20:03:00,
2013-01-16 15:05:00,39.2,12.5,29.12,North,351,6.9,8.7,33,0.00,,---,0.00,VWS V14.01,2013-01-16 20:05:00,
2013-01-16 15:09:00,35.2,11.6,28.88,SSW,210,7.8,12.1,37,0.00,,---,0.00,VWS V14.01,2013-01-16 20:09:00,
2013-01-16 15:14:00,35.2,10.3,28.88,WSW,247,11.0,12.5,35,0.00,,---,0.00,VWS V14.01,2013-01-16 20:14:00,
2013-01-16 15:19:00,34.9,10.6,28.88,West,271,8.7,11.0,36,0.00,,---,0.00,VWS V14.01,2013-01-16 20:19:00,
2013-01-16 15:24:00,34.9,10.6,28.88,WNW,285,9.6,11.2,36,0.00,,---,0.00,VWS V14.01,2013-01-16 20:24:00,
2013-01-16 15:29:00,34.9,9.4,28.88,SW,234,7.8,13.0,34,0.00,,---,0.00,VWS V14.01,2013-01-16 20:29:00,
2013-01-16 15:34:00,34.7,9.9,28.88,WSW,254,5.8,8.3,35,0.00,,---,0.00,VWS V14.01,2013-01-16 20:34:00,
2013-01-16 15:39:00,34.7,11.1,28.88,WSW,242,9.6,12.1,37,0.00,,---,0.00,VWS V14.01,2013-01-16 20:39:00,
2013-01-16 15:44:00,34.7,12.9,28.88,West,266,8.3,8.3,40,0.00,,---,0.00,VWS V14.01,2013-01-16 20:44:00,
2013-01-16 15:49:00,34.5,12.7,28.88,WSW,252,6.7,6.9,40,0.00,,---,0.00,VWS V14.01,2013-01-16 20:49:00,
2013-01-16 15:50:00,39.4,10.5,29.09,North,1,5.8,11.6,30,0.00,,---,0.00,VWS V14.01,2013-01-16 20:50:00,
2013-01-16 15:51:00,39.4,10.5,29.12,NNW,327,7.8,7.8,30,0.00,,---,0.00,VWS V14.01,2013-01-16 20:51:00,
2013-01-16 15:52:00,39.2,10.4,29.12,North,356,5.8,13.0,30,0.00,,---,0.00,VWS V14.01,2013-01-16 20:52:00,
2013-01-16 15:54:00,34.5,12.7,28.88,WSW,253,5.8,8.7,40,0.00,,---,0.00,VWS V14.01,2013-01-16 20:54:00,
2013-01-16 15:55:00,39.6,10.7,29.12,North,2,3.6,10.1,30,0.00,,---,0.00,VWS V14.01,2013-01-16 20:55:00,
2013-01-16 15:56:00,39.7,10.9,29.12,NW,325,7.4,9.2,30,0.00,,---,0.00,VWS V14.01,2013-01-16 20:56:00,
2013-01-16 15:57:00,39.7,10.9,29.12,North,351,9.2,9.2,30,0.00,,---,0.00,VWS V14.01,2013-01-16 20:57:00,
2013-01-16 15:59:00,34.5,12.7,28.88,WNW,288,6.9,8.7,40,0.00,,---,0.00,VWS V14.01,2013-01-16 20:59:00,
2013-01-16 16:00:00,39.0,10.2,29.12,NW,311,7.8,10.5,30,0.00,,---,0.00,VWS V14.01,2013-01-16 21:00:00,
2013-01-16 16:02:00,38.8,10.1,29.12,NW,305,7.4,8.7,30,0.00,,---,0.00,VWS V14.01,2013-01-16 21:02:00,
2013-01-16 16:03:00,39.2,10.4,29.12,NNW,331,7.8,7.8,30,0.00,,---,0.00,VWS V14.01,2013-01-16 21:03:00,
2013-01-16 16:04:00,34.3,10.2,28.88,West,269,6.3,11.2,36,0.00,,---,0.00,VWS V14.01,2013-01-16 21:04:00,
2013-01-16 16:05:00,39.4,10.5,29.12,NNW,342,6.3,11.0,30,0.00,,---,0.00,VWS V14.01,2013-01-16 21:05:00,
2013-01-16 16:06:00,39.4,10.5,29.12,NW,308,6.9,10.1,30,0.00,,---,0.00,VWS V14.01,2013-01-16 21:06:00,
2013-01-16 16:07:00,39.4,10.5,29.12,NNW,336,5.4,8.7,30,0.00,,---,0.00,VWS V14.01,2013-01-16 21:07:00,
2013-01-16 16:09:00,34.3,8.9,28.88,SW,215,6.9,7.8,34,0.00,,---,0.00,VWS V14.01,2013-01-16 21:09:00,
2013-01-16 16:14:00,34.3,8.9,28.88,West,274,6.9,10.5,34,0.00,,---,0.00,VWS V14.01,2013-01-16 21:14:00,
2013-01-16 16:15:00,38.8,10.1,29.12,NW,323,9.2,11.2,30,0.00,,---,0.00,VWS V14.01,2013-01-16 21:15:00,
2013-01-16 16:16:00,38.8,10.1,29.12,North,0,6.3,10.1,30,0.00,,---,0.00,VWS V14.01,2013-01-16 21:16:00,
2013-01-16 16:17:00,38.8,10.1,29.12,North,4,4.9,11.0,30,0.00,,---,0.00,VWS V14.01,2013-01-16 21:17:00,
2013-01-16 16:19:00,34.2,9.4,28.88,West,281,4.9,5.4,35,0.00,,---,0.00,VWS V14.01,2013-01-16 21:19:00,
2013-01-16 16:20:00,39.2,11.1,29.12,North,351,8.3,8.3,31,0.00,,---,0.00,VWS V14.01,2013-01-16 21:20:00,
2013-01-16 16:21:00,39.2,10.4,29.12,NNW,338,9.2,9.2,30,0.00,,---,0.00,VWS V14.01,2013-01-16 21:21:00,
2013-01-16 16:22:00,39.2,10.4,29.12,NNW,331,6.7,9.2,30,0.00,,---,0.00,VWS V14.01,2013-01-16 21:22:00,
2013-01-16 16:24:00,34.2,10.6,28.88,West,265,6.3,8.7,37,0.00,,---,0.00,VWS V14.01,2013-01-16 21:24:00,
2013-01-16 16:26:00,39.2,11.1,29.12,NW,316,6.3,11.6,31,0.00,,---,0.00,VWS V14.01,2013-01-16 21:26:00,
2013-01-16 16:27:00,39.2,11.1,29.12,NW,325,12.1,12.1,31,0.00,,---,0.00,VWS V14.01,2013-01-16 21:27:00,
2013-01-16 16:29:00,34.0,11.1,28.88,West,280,4.5,7.4,38,0.00,,---,0.00,VWS V14.01,2013-01-16 21:29:00,
2013-01-16 16:34:00,33.8,12.1,28.88,West,259,7.8,9.6,40,0.00,,---,0.00,VWS V14.01,2013-01-16 21:34:00,
2013-01-16 16:39:00,33.6,11.9,28.88,WSW,246,5.8,11.2,40,0.00,,---,0.00,VWS V14.01,2013-01-16 21:39:00,
2013-01-16 16:44:00,33.6,10.1,28.88,WSW,249,5.8,8.3,37,0.00,,---,0.00,VWS V14.01,2013-01-16 21:44:00,
2013-01-16 16:49:00,33.6,9.5,28.88,WSW,240,6.9,12.1,36,0.00,,---,0.00,VWS V14.01,2013-01-16 21:49:00,
2013-01-16 16:54:00,33.4,8.7,28.88,WSW,249,9.6,9.6,35,0.00,,---,0.00,VWS V14.01,2013-01-16 21:54:00,
2013-01-16 16:59:00,33.3,7.9,28.88,WSW,242,5.8,11.0,34,0.00,,---,0.00,VWS V14.01,2013-01-16 21:59:00,
2013-01-16 17:04:00,33.1,8.4,28.88,WSW,242,6.3,7.8,35,0.00,,---,0.00,VWS V14.01,2013-01-16 22:04:00,
2013-01-16 17:09:00,33.1,9.1,28.88,West,263,6.3,9.6,36,0.00,,---,0.00,VWS V14.01,2013-01-16 22:09:00,
2013-01-16 17:14:00,32.9,10.7,28.91,SW,231,6.9,9.6,39,0.00,,---,0.00,VWS V14.01,2013-01-16 22:14:00,
2013-01-16 17:19:00,32.7,11.1,28.91,WSW,242,6.7,8.7,40,0.00,,---,0.00,VWS V14.01,2013-01-16 22:19:00,
2013-01-16 17:24:00,32.5,11.5,28.91,West,265,5.4,5.8,41,0.00,,---,0.00,VWS V14.01,2013-01-16 22:24:00,
2013-01-16 17:29:00,32.5,11.5,28.91,SW,216,6.3,6.9,41,0.00,,---,0.00,VWS V14.01,2013-01-16 22:29:00,
2013-01-16 17:34:00,32.5,10.9,28.91,WSW,249,5.4,9.2,40,0.00,,---,0.00,VWS V14.01,2013-01-16 22:34:00,
2013-01-16 17:39:00,32.4,10.8,28.91,WSW,248,8.3,9.6,40,0.00,,---,0.00,VWS V14.01,2013-01-16 22:39:00,
2013-01-16 17:44:00,32.2,11.1,28.91,WNW,289,7.4,9.6,41,0.00,,---,0.00,VWS V14.01,2013-01-16 22:44:00,
2013-01-16 17:49:00,32.2,10.6,28.91,WSW,239,9.6,9.6,40,0.00,,---,0.00,VWS V14.01,2013-01-16 22:49:00,
2013-01-16 17:54:00,32.2,10.6,28.91,WSW,256,8.3,8.7,40,0.00,,---,0.00,VWS V14.01,2013-01-16 22:54:00,
2013-01-16 17:59:00,32.2,10.6,28.91,West,262,10.5,10.5,40,0.00,,---,0.00,VWS V14.01,2013-01-16 22:59:00,
2013-01-16 18:04:00,32.2,11.1,28.91,WSW,241,4.0,7.4,41,0.00,,---,0.00,VWS V14.01,2013-01-16 23:04:00,
2013-01-16 18:10:00,32.0,11.0,28.91,NW,306,4.5,9.6,41,0.00,,---,0.00,VWS V14.01,2013-01-16 23:10:00,
2013-01-16 18:15:00,31.6,11.2,28.91,WSW,241,5.8,7.4,42,0.00,,---,0.00,VWS V14.01,2013-01-16 23:15:00,
2013-01-16 18:20:00,31.3,11.4,28.91,WSW,237,4.5,5.4,43,0.00,,---,0.00,VWS V14.01,2013-01-16 23:20:00,
2013-01-16 18:25:00,31.1,11.8,28.91,SW,226,6.3,7.8,44,0.00,,---,0.00,VWS V14.01,2013-01-16 23:25:00,
2013-01-16 18:30:00,30.9,12.6,28.94,SW,217,7.4,9.6,46,0.00,,---,0.00,VWS V14.01,2013-01-16 23:30:00,
2013-01-16 18:31:00,32.5,11.5,29.15,NNW,330,6.9,7.8,41,0.00,,---,0.00,VWS V14.01,2013-01-16 23:31:00,
2013-01-16 18:32:00,32.4,11.3,29.15,NW,321,10.5,11.0,41,0.00,,---,0.00,VWS V14.01,2013-01-16 23:32:00,
2013-01-16 18:35:00,31.1,12.8,28.94,WSW,258,7.8,11.0,46,0.00,,---,0.00,VWS V14.01,2013-01-16 23:35:00,
2013-01-16 18:40:00,31.3,12.4,28.94,SW,222,4.9,5.8,45,0.00,,---,0.00,VWS V14.01,2013-01-16 23:40:00,
2013-01-16 18:45:00,31.1,12.8,28.94,WSW,244,5.8,7.4,46,0.00,,---,0.00,VWS V14.01,2013-01-16 23:45:00,
2013-01-16 18:47:00,31.5,10.5,29.15,NW,324,6.7,10.5,41,0.00,,---,0.00,VWS V14.01,2013-01-16 23:47:00,
2013-01-16 18:48:00,31.5,10.5,29.15,NNW,328,13.0,13.0,41,0.00,,---,0.00,VWS V14.01,2013-01-16 23:48:00,
2013-01-16 18:49:00,31.5,10.5,29.15,NNW,334,9.6,13.0,41,0.00,,---,0.00,VWS V14.01,2013-01-16 23:49:00,
2013-01-16 18:50:00,31.1,12.8,28.94,SW,225,6.7,6.7,46,0.00,,---,0.00,VWS V14.01,2013-01-16 23:50:00,
2013-01-16 18:53:00,31.3,10.3,29.18,NNW,331,7.8,11.6,41,0.00,,---,0.00,VWS V14.01,2013-01-16 23:53:00,
2013-01-16 18:54:00,31.1,10.2,29.18,NNW,342,10.5,10.5,41,0.00,,---,0.00,VWS V14.01,2013-01-16 23:54:00,
2013-01-16 18:55:00,30.9,13.1,28.94,WSW,237,3.1,4.0,47,0.00,,---,0.00,VWS V14.01,2013-01-16 23:55:00,
2013-01-16 18:56:00,31.1,10.7,29.18,NNW,328,5.8,9.6,42,0.00,,---,0.00,VWS V14.01,2013-01-16 23:56:00,
2013-01-16 18:58:00,30.9,10.5,29.18,NW,312,5.8,12.1,42,0.00,,---,0.00,VWS V14.01,2013-01-16 23:58:00,
2013-01-16 18:59:00,30.9,11.1,29.18,NE,38,5.4,6.3,43,0.00,,---,0.00,VWS V14.01,2013-01-16 23:59:00,
2013-01-16 19:00:00,30.7,13.4,28.91,West,270,6.3,6.3,48,0.00,,---,0.00,VWS V14.01,2013-01-17 00:00:00,
2013-01-16 19:02:00,30.6,10.7,29.18,NNW,337,5.8,8.3,43,0.00,,---,0.00,VWS V14.01,2013-01-17 00:02:00,
2013-01-16 19:03:00,30.6,10.7,29.18,NNW,328,5.4,6.9,43,0.00,,---,0.00,VWS V14.01,2013-01-17 00:03:00,
2013-01-16 19:05:00,30.9,14.0,28.91,West,269,4.5,6.7,49,0.00,,---,0.00,VWS V14.01,2013-01-17 00:05:00,
2013-01-16 19:06:00,30.4,11.1,29.18,North,6,0.0,9.6,44,0.00,,---,0.00,VWS V14.01,2013-01-17 00:06:00,
2013-01-16 19:07:00,30.2,10.9,29.18,NNE,14,5.4,8.7,44,0.00,,---,0.00,VWS V14.01,2013-01-17 00:07:00,
2013-01-16 19:08:00,30.2,10.9,29.18,NNW,342,4.9,6.9,44,0.00,,---,0.00,VWS V14.01,2013-01-17 00:08:00,
2013-01-16 19:09:00,30.0,10.8,29.18,NW,321,8.3,8.3,44,0.00,,---,0.00,VWS V14.01,2013-01-17 00:09:00,
2013-01-16 19:10:00,30.9,14.0,28.91,WSW,248,4.5,7.4,49,0.00,,---,0.00,VWS V14.01,2013-01-17 00:10:00,
2013-01-16 19:11:00,29.8,10.6,29.18,NNW,333,5.8,7.4,44,0.00,,---,0.00,VWS V14.01,2013-01-17 00:11:00,
2013-01-16 19:12:00,29.8,10.6,29.18,NW,324,7.4,7.8,44,0.00,,---,0.00,VWS V14.01,2013-01-17 00:12:00,
2013-01-16 19:13:00,29.8,10.6,29.18,NW,317,8.7,13.4,44,0.00,,---,0.00,VWS V14.01,2013-01-17 00:13:00,
2013-01-16 19:14:00,29.8,10.6,29.18,North,1,3.6,8.7,44,0.00,,---,0.00,VWS V14.01,2013-01-17 00:14:00,
2013-01-16 19:15:00,30.9,14.0,28.94,WSW,255,7.8,10.5,49,0.00,,---,0.00,VWS V14.01,2013-01-17 00:15:00,
2013-01-16 19:16:00,29.7,10.9,29.18,NW,319,6.9,6.9,45,0.00,,---,0.00,VWS V14.01,2013-01-17 00:16:00,
2013-01-16 19:17:00,29.7,10.9,29.18,North,351,6.7,8.7,45,0.00,,---,0.00,VWS V14.01,2013-01-17 00:17:00,
2013-01-16 19:19:00,29.5,10.8,29.18,NNE,18,3.6,6.9,45,0.00,,---,0.00,VWS V14.01,2013-01-17 00:19:00,
2013-01-16 19:20:00,30.7,13.9,28.94,WSW,242,3.1,6.7,49,0.00,,---,0.00,VWS V14.01,2013-01-17 00:20:00,
2013-01-16 19:21:00,29.5,11.3,29.21,NNW,346,4.9,5.8,46,0.00,,---,0.00,VWS V14.01,2013-01-17 00:21:00,
2013-01-16 19:22:00,29.3,11.1,29.21,NNW,343,4.5,9.2,46,0.00,,---,0.00,VWS V14.01,2013-01-17 00:22:00,
2013-01-16 19:23:00,29.3,11.1,29.21,NNW,329,3.1,6.3,46,0.00,,---,0.00,VWS V14.01,2013-01-17 00:23:00,
2013-01-16 19:24:00,29.1,10.9,29.21,North,3,6.7,11.2,46,0.00,,---,0.00,VWS V14.01,2013-01-17 00:24:00,
2013-01-16 19:25:00,30.6,14.1,28.94,WSW,238,4.5,8.3,50,0.00,,---,0.00,VWS V14.01,2013-01-17 00:25:00,
2013-01-16 19:27:00,29.1,10.9,29.21,NNW,343,4.5,11.6,46,0.00,,---,0.00,VWS V14.01,2013-01-17 00:27:00,
2013-01-16 19:28:00,29.1,10.9,29.21,NNW,341,7.4,7.4,46,0.00,,---,0.00,VWS V14.01,2013-01-17 00:28:00,
2013-01-16 19:29:00,28.9,10.8,29.21,North,351,4.9,7.4,46,0.00,,---,0.00,VWS V14.01,2013-01-17 00:29:00,
2013-01-16 19:30:00,30.6,14.6,28.94,WSW,251,6.3,6.3,51,0.00,,---,0.00,VWS V14.01,2013-01-17 00:30:00,
2013-01-16 19:31:00,28.8,10.6,29.21,NNW,336,11.6,11.6,46,0.00,,---,0.00,VWS V14.01,2013-01-17 00:31:00,
2013-01-16 19:32:00,28.9,10.8,29.21,NW,323,5.4,11.6,46,0.00,,---,0.00,VWS V14.01,2013-01-17 00:32:00,
2013-01-16 19:33:00,28.8,10.6,29.21,NNW,337,6.7,6.9,46,0.00,,---,0.00,VWS V14.01,2013-01-17 00:33:00,
2013-01-16 19:34:00,28.8,10.6,29.21,NNW,328,7.4,8.7,46,0.00,,---,0.00,VWS V14.01,2013-01-17 00:34:00,
2013-01-16 19:35:00,30.4,14.9,28.94,WSW,255,4.0,7.8,52,0.00,,---,0.00,VWS V14.01,2013-01-17 00:35:00,
2013-01-16 19:36:00,28.8,10.6,29.21,NNE,13,3.1,7.4,46,0.00,,---,0.00,VWS V14.01,2013-01-17 00:36:00,
2013-01-16 19:38:00,28.6,10.4,29.21,North,351,8.3,10.5,46,0.00,,---,0.00,VWS V14.01,2013-01-17 00:38:00,
2013-01-16 19:39:00,28.6,9.9,29.21,NNW,333,4.9,13.9,45,0.00,,---,0.00,VWS V14.01,2013-01-17 00:39:00,
2013-01-16 19:40:00,30.4,15.3,28.94,WSW,238,4.5,6.3,53,0.00,,---,0.00,VWS V14.01,2013-01-17 00:40:00,
2013-01-16 19:41:00,28.6,9.9,29.21,NNW,329,5.4,9.6,45,0.00,,---,0.00,VWS V14.01,2013-01-17 00:41:00,
2013-01-16 19:44:00,28.6,9.9,29.21,NNW,346,11.0,13.9,45,0.00,,---,0.00,VWS V14.01,2013-01-17 00:44:00,
2013-01-16 19:45:00,30.4,15.3,28.94,WSW,240,5.8,6.9,53,0.00,,---,0.00,VWS V14.01,2013-01-17 00:45:00,
2013-01-16 19:49:00,28.4,9.3,29.21,NW,324,9.2,11.2,44,0.00,,---,0.00,VWS V14.01,2013-01-17 00:49:00,
2013-01-16 19:50:00,30.4,15.7,28.94,West,260,6.3,6.7,54,0.00,,---,0.00,VWS V14.01,2013-01-17 00:50:00,
2013-01-16 19:53:00,28.2,9.6,29.21,NW,326,11.0,11.0,45,0.00,,---,0.00,VWS V14.01,2013-01-17 00:53:00,
2013-01-16 19:55:00,30.4,15.7,28.94,WSW,248,6.3,9.2,54,0.00,,---,0.00,VWS V14.01,2013-01-17 00:55:00,
2013-01-16 20:00:00,30.4,15.7,28.94,WSW,240,3.6,6.7,54,0.00,,---,0.00,VWS V14.01,2013-01-17 01:00:00,
2013-01-16 20:01:00,27.9,10.7,29.21,NNW,330,7.4,7.8,48,0.00,,---,0.00,VWS V14.01,2013-01-17 01:01:00,
2013-01-16 20:03:00,27.7,11.0,29.21,NNW,328,4.9,8.3,49,0.00,,---,0.00,VWS V14.01,2013-01-17 01:03:00,
2013-01-16 20:04:00,27.7,11.0,29.21,NNW,332,6.9,9.2,49,0.00,,---,0.00,VWS V14.01,2013-01-17 01:04:00,
2013-01-16 20:05:00,30.4,15.3,28.94,West,268,4.9,10.1,53,0.00,,---,0.00,VWS V14.01,2013-01-17 01:05:00,
2013-01-16 20:07:00,27.5,11.3,29.23,NNW,346,4.9,7.4,50,0.00,,---,0.00,VWS V14.01,2013-01-17 01:07:00,
2013-01-16 20:10:00,30.4,15.7,28.94,SW,221,6.3,6.3,54,0.00,,---,0.00,VWS V14.01,2013-01-17 01:10:00,
2013-01-16 20:15:00,30.6,15.9,28.94,WSW,237,2.7,8.3,54,0.00,,---,0.00,VWS V14.01,2013-01-17 01:15:00,
2013-01-16 20:20:00,30.6,15.9,28.94,SW,229,3.6,8.7,54,0.00,,---,0.00,VWS V14.01,2013-01-17 01:20:00,
2013-01-16 20:25:00,30.4,15.7,28.94,West,263,8.7,10.5,54,0.00,,---,0.00,VWS V14.01,2013-01-17 01:25:00,
2013-01-16 20:30:00,30.4,15.7,28.94,WSW,257,5.8,7.4,54,0.00,,---,0.00,VWS V14.01,2013-01-17 01:30:00,
2013-01-16 20:35:00,30.4,15.7,28.94,WSW,253,7.4,11.2,54,0.00,,---,0.00,VWS V14.01,2013-01-17 01:35:00,
2013-01-16 20:36:00,26.1,9.1,29.23,North,356,4.5,7.8,48,0.00,,---,0.00,VWS V14.01,2013-01-17 01:36:00,
2013-01-16 20:40:00,30.6,15.9,28.94,WSW,247,6.3,12.1,54,0.00,,---,0.00,VWS V14.01,2013-01-17 01:40:00,
2013-01-16 20:41:00,25.7,8.7,29.23,North,351,7.4,11.0,48,0.00,,---,0.00,VWS V14.01,2013-01-17 01:41:00,
2013-01-16 20:42:00,25.7,8.7,29.23,NNE,32,5.4,9.2,48,0.00,,---,0.00,VWS V14.01,2013-01-17 01:42:00,
2013-01-16 20:45:00,30.7,16.1,28.94,WSW,242,9.6,10.5,54,0.00,,---,0.00,VWS V14.01,2013-01-17 01:45:00,
2013-01-16 20:48:00,25.5,8.6,29.23,North,351,5.4,9.2,48,0.00,,---,0.00,VWS V14.01,2013-01-17 01:48:00,
2013-01-16 20:50:00,30.9,15.8,28.94,SW,216,5.4,11.2,53,0.00,,---,0.00,VWS V14.01,2013-01-17 01:50:00,
2013-01-16 20:51:00,25.3,8.4,29.26,NNW,337,6.7,11.0,48,0.00,,---,0.00,VWS V14.01,2013-01-17 01:51:00,
2013-01-16 20:55:00,30.9,15.8,28.94,West,272,7.4,9.2,53,0.00,,---,0.00,VWS V14.01,2013-01-17 01:55:00,
2013-01-16 20:59:00,25.2,7.8,29.26,NNW,337,4.5,8.3,47,0.00,,---,0.00,VWS V14.01,2013-01-17 01:59:00,
2013-01-16 21:00:00,31.1,15.5,28.94,WSW,253,8.7,14.3,52,0.00,,---,0.00,VWS V14.01,2013-01-17 02:00:00,
2013-01-16 21:01:00,25.2,7.8,29.26,NNE,14,5.8,10.5,47,0.00,,---,0.00,VWS V14.01,2013-01-17 02:01:00,
2013-01-16 21:02:00,25.2,7.8,29.26,NNW,335,6.3,6.3,47,0.00,,---,0.00,VWS V14.01,2013-01-17 02:02:00,
2013-01-16 21:03:00,25.2,7.8,29.26,North,351,5.4,10.5,47,0.00,,---,0.00,VWS V14.01,2013-01-17 02:03:00,
2013-01-16 21:05:00,31.3,15.3,28.94,WSW,258,6.7,7.8,51,0.00,,---,0.00,VWS V14.01,2013-01-17 02:05:00,
2013-01-16 21:06:00,25.0,8.1,29.26,NW,325,4.0,8.3,48,0.00,,---,0.00,VWS V14.01,2013-01-17 02:06:00,
2013-01-16 21:07:00,25.0,8.5,29.26,NW,323,5.4,9.2,49,0.00,,---,0.00,VWS V14.01,2013-01-17 02:07:00,
2013-01-16 21:10:00,31.3,15.3,28.94,WNW,288,9.2,11.0,51,0.00,,---,0.00,VWS V14.01,2013-01-17 02:10:00,
2013-01-16 21:11:00,24.8,8.8,29.26,NW,313,6.7,9.6,50,0.00,,---,0.00,VWS V14.01,2013-01-17 02:11:00,
2013-01-16 21:13:00,24.8,8.8,29.26,NNE,21,4.0,7.8,50,0.00,,---,0.00,VWS V14.01,2013-01-17 02:13:00,
2013-01-16 21:15:00,24.8,8.8,29.26,NNW,329,4.5,6.7,50,0.00,,---,0.00,VWS V14.01,2013-01-17 02:15:00,
2013-01-16 21:16:00,31.5,15.4,28.94,South,169,4.5,10.5,51,0.00,,---,0.00,VWS V14.01,2013-01-17 02:16:00,
2013-01-16 21:17:00,24.8,9.2,29.26,NW,322,5.4,7.8,51,0.00,,---,0.00,VWS V14.01,2013-01-17 02:17:00,
2013-01-16 21:19:00,24.8,9.2,29.26,NNW,329,4.5,7.8,51,0.00,,---,0.00,VWS V14.01,2013-01-17 02:19:00,
2013-01-16 21:21:00,31.5,15.0,28.94,West,270,10.5,11.6,50,0.00,,---,0.00,VWS V14.01,2013-01-17 02:21:00,
2013-01-16 21:22:00,24.8,8.4,29.26,NNW,330,6.9,10.5,49,0.00,,---,0.00,VWS V14.01,2013-01-17 02:22:00,
2013-01-16 21:23:00,24.8,8.4,29.26,NNW,338,5.8,9.2,49,0.00,,---,0.00,VWS V14.01,2013-01-17 02:23:00,
2013-01-16 21:24:00,24.8,8.4,29.26,NW,320,6.3,7.4,49,0.00,,---,0.00,VWS V14.01,2013-01-17 02:24:00,
2013-01-16 21:25:00,24.8,8.4,29.26,NNW,341,4.9,9.2,49,0.00,,---,0.00,VWS V14.01,2013-01-17 02:25:00,
2013-01-16 21:27:00,31.3,15.3,28.94,West,262,9.2,10.5,51,0.00,,---,0.00,VWS V14.01,2013-01-17 02:27:00,
2013-01-16 21:28:00,24.6,8.2,29.26,NNW,331,9.6,11.2,49,0.00,,---,0.00,VWS V14.01,2013-01-17 02:28:00,
2013-01-16 21:29:00,24.6,8.2,29.26,NW,309,8.3,11.2,49,0.00,,---,0.00,VWS V14.01,2013-01-17 02:29:00,
2013-01-16 21:31:00,24.6,7.7,29.26,NNW,346,4.9,4.9,48,0.00,,---,0.00,VWS V14.01,2013-01-17 02:31:00,
2013-01-16 21:32:00,24.6,7.7,29.26,North,356,4.9,8.7,48,0.00,,---,0.00,VWS V14.01,2013-01-17 02:32:00,
2013-01-16 21:33:00,31.3,15.3,28.94,West,275,6.7,12.1,51,0.00,,---,0.00,VWS V14.01,2013-01-17 02:33:00,
2013-01-16 21:34:00,24.6,7.7,29.26,NNE,25,6.7,11.0,48,0.00,,---,0.00,VWS V14.01,2013-01-17 02:34:00,
2013-01-16 21:35:00,24.6,7.7,29.26,NNW,340,4.9,9.2,48,0.00,,---,0.00,VWS V14.01,2013-01-17 02:35:00,
2013-01-16 21:37:00,24.4,7.1,29.26,North,351,6.9,8.3,47,0.00,,---,0.00,VWS V14.01,2013-01-17 02:37:00,
2013-01-16 21:38:00,24.4,7.1,29.26,NNW,347,11.2,11.2,47,0.00,,---,0.00,VWS V14.01,2013-01-17 02:38:00,
2013-01-16 21:39:00,24.4,7.1,29.26,NNW,334,6.9,11.2,47,0.00,,---,0.00,VWS V14.01,2013-01-17 02:39:00,
2013-01-16 21:40:00,31.3,15.3,28.94,West,268,8.7,11.6,51,0.00,,---,0.00,VWS V14.01,2013-01-17 02:40:00,
2013-01-16 21:41:00,24.4,7.6,29.26,NE,42,4.0,7.4,48,0.00,,---,0.00,VWS V14.01,2013-01-17 02:41:00,
2013-01-16 21:42:00,24.3,7.4,29.26,North,4,3.6,8.7,48,0.00,,---,0.00,VWS V14.01,2013-01-17 02:42:00,
2013-01-16 21:46:00,31.3,15.7,28.97,WNW,291,9.6,10.5,52,0.00,,---,0.00,VWS V14.01,2013-01-17 02:46:00,
2013-01-16 21:47:00,24.1,7.7,29.26,NNW,346,4.5,6.3,49,0.00,,---,0.00,VWS V14.01,2013-01-17 02:47:00,
2013-01-16 21:48:00,24.1,7.7,29.26,NW,312,7.8,7.8,49,0.00,,---,0.00,VWS V14.01,2013-01-17 02:48:00,
2013-01-16 21:51:00,31.3,15.7,28.97,WSW,252,6.9,10.1,52,0.00,,---,0.00,VWS V14.01,2013-01-17 02:51:00,
2013-01-16 21:52:00,24.1,8.1,29.26,NNE,33,4.5,6.3,50,0.00,,---,0.00,VWS V14.01,2013-01-17 02:52:00,
2013-01-16 21:55:00,23.9,8.4,29.26,North,351,5.8,7.8,51,0.00,,---,0.00,VWS V14.01,2013-01-17 02:55:00,
2013-01-16 21:57:00,31.1,16.0,28.97,WSW,254,8.3,12.1,53,0.00,,---,0.00,VWS V14.01,2013-01-17 02:57:00,
2013-01-16 22:01:00,23.9,7.5,29.26,NNW,338,5.4,7.4,49,0.00,,---,0.00,VWS V14.01,2013-01-17 03:01:00,
2013-01-16 22:02:00,31.1,16.4,28.97,West,274,8.3,12.1,54,0.00,,---,0.00,VWS V14.01,2013-01-17 03:02:00,
2013-01-16 22:03:00,23.7,6.9,29.26,NW,306,8.3,8.3,48,0.00,,---,0.00,VWS V14.01,2013-01-17 03:03:00,
2013-01-16 22:05:00,23.9,7.1,29.26,NE,39,5.4,6.9,48,0.00,,---,0.00,VWS V14.01,2013-01-17 03:05:00,
2013-01-16 22:07:00,31.1,16.4,28.97,West,270,9.2,11.2,54,0.00,,---,0.00,VWS V14.01,2013-01-17 03:07:00,
2013-01-16 22:09:00,23.7,6.9,29.26,NW,321,5.8,5.8,48,0.00,,---,0.00,VWS V14.01,2013-01-17 03:09:00,
2013-01-16 22:11:00,23.5,6.8,29.26,NNE,22,2.7,7.8,48,0.00,,---,0.00,VWS V14.01,2013-01-17 03:11:00,
2013-01-16 22:13:00,31.1,16.8,28.97,WNW,286,5.4,8.3,55,0.00,,---,0.00,VWS V14.01,2013-01-17 03:13:00,
2013-01-16 22:14:00,23.4,6.6,29.26,NW,311,4.5,6.3,48,0.00,,---,0.00,VWS V14.01,2013-01-17 03:14:00,
2013-01-16 22:18:00,23.4,7.0,29.26,NNW,332,3.1,5.4,49,0.00,,---,0.00,VWS V14.01,2013-01-17 03:18:00,
2013-01-16 22:19:00,31.1,17.2,28.97,West,261,6.3,11.0,56,0.00,,---,0.00,VWS V14.01,2013-01-17 03:19:00,
2013-01-16 22:20:00,23.2,6.9,29.26,North,8,0.0,6.7,49,0.00,,---,0.00,VWS V14.01,2013-01-17 03:20:00,
2013-01-16 22:24:00,31.1,17.2,28.97,WNW,302,3.6,9.2,56,0.00,,---,0.00,VWS V14.01,2013-01-17 03:24:00,
2013-01-16 22:29:00,31.3,17.8,28.97,WSW,257,6.7,9.2,57,0.00,,---,0.00,VWS V14.01,2013-01-17 03:29:00,
2013-01-16 22:34:00,31.3,17.8,28.97,WSW,246,5.8,7.4,57,0.00,,---,0.00,VWS V14.01,2013-01-17 03:34:00,
2013-01-16 22:39:00,31.3,17.8,28.97,West,261,9.6,10.5,57,0.00,,---,0.00,VWS V14.01,2013-01-17 03:39:00,
2013-01-16 22:44:00,31.3,17.8,28.97,WSW,258,6.3,9.6,57,0.00,,---,0.00,VWS V14.01,2013-01-17 03:44:00,
2013-01-16 22:49:00,31.3,18.2,28.97,West,275,8.3,10.5,58,0.00,,---,0.00,VWS V14.01,2013-01-17 03:49:00,
2013-01-16 22:54:00,31.3,18.2,28.97,West,264,6.7,10.1,58,0.00,,---,0.00,VWS V14.01,2013-01-17 03:54:00,
2013-01-16 22:59:00,31.3,18.6,28.97,NW,310,10.5,11.0,59,0.00,,---,0.00,VWS V14.01,2013-01-17 03:59:00,
2013-01-16 23:04:00,31.3,18.6,28.97,WSW,254,7.4,9.2,59,0.00,,---,0.00,VWS V14.01,2013-01-17 04:04:00,
2013-01-16 23:09:00,31.3,19.0,28.97,WSW,241,8.3,8.7,60,0.00,,---,0.00,VWS V14.01,2013-01-17 04:09:00,
2013-01-16 23:14:00,31.3,19.0,28.97,West,277,7.8,7.8,60,0.00,,---,0.00,VWS V14.01,2013-01-17 04:14:00,
2013-01-16 23:19:00,31.5,19.2,28.97,WSW,243,7.8,7.8,60,0.00,,---,0.00,VWS V14.01,2013-01-17 04:19:00,
2013-01-16 23:24:00,31.5,19.6,28.97,West,265,5.8,7.8,61,0.00,,---,0.00,VWS V14.01,2013-01-17 04:24:00,
2013-01-16 23:29:00,31.5,19.6,28.97,WSW,251,6.9,8.7,61,0.00,,---,0.00,VWS V14.01,2013-01-17 04:29:00,
2013-01-16 23:34:00,31.5,20.0,28.97,WSW,244,4.9,7.4,62,0.00,,---,0.00,VWS V14.01,2013-01-17 04:34:00,
2013-01-16 23:39:00,31.3,19.8,28.97,West,261,7.8,11.6,62,0.00,,---,0.00,VWS V14.01,2013-01-17 04:39:00,
2013-01-16 23:44:00,31.3,20.2,28.97,WSW,247,7.8,11.2,63,0.00,,---,0.00,VWS V14.01,2013-01-17 04:44:00,
2013-01-16 23:49:00,31.3,20.2,28.97,West,261,4.5,7.4,63,0.00,,---,0.00,VWS V14.01,2013-01-17 04:49:00,
2013-01-16 23:54:00,30.9,20.2,28.97,WSW,245,4.9,10.1,64,0.00,,---,0.00,VWS V14.01,2013-01-17 04:54:00,
2013-01-16 23:59:00,30.7,20.4,29.00,SW,236,6.9,10.5,65,0.00,,---,0.00,VWS V14.01,2013-01-17 04:59:00,